星链-5160 (STARLINK-5160 )

导读 | 星芒AI

STARLINK-5160 是 SpaceX Starlink 项目中的一颗低轨通信卫星,属于第51组发射批次。该卫星旨在为全球用户提供高速互联网服务,支持偏远地区的网络接入。它运行在约550公里高的近地轨道,采用先进的推进系统和激光通信技术,以提高数据传输效率并减少延迟。作为 Starlink 卫星群的一部分,STARLINK-5160 有助于构建覆盖全球的宽带网络,推动互联网普及与数字连接。

基本信息
目录编号:
54080
目录名称:
STARLINK-5160
国际标识:
2022-136AF
轨道中心:
EARTH
卫星名称:
星链-5160
卫星全名:
星链-5160 (STARLINK-5160 )
卫星状态:
在轨 (已飞行1111 天)
发射日期:
2022-10-20 UTC
国别 :
美国 (US)
星等 :
--
轨道信息
数据来源 国际轨道数据
星历时间: 2025-11-04T23:22:26+0800
6小时前
查看轨道信息
半长轴: 6917.851km
偏心率: 0.0001429
轨道倾角: 53.215°
近地点辐角 93.103°
升交点赤经 180.654°
平近点角 267.013°
近地点: 538.727km
远地点: 540.705km
周期: 95.437分钟
每日圈数: 15.088499
详细信息
固有亮度:
5
最大亮度:
2.5
卫星平台:
Starlink v1.5
覆盖范围:
全球
运营商:
太空探索技术公司
运营商所在国:
美国
制造商(研发单位):
太空探索技术公司
制造商所在国:
美国
使用方式:
暂无
卫星简介
星链(Starlink)计划是由太空探索技术公司(SpaceX)提出的一个巨型低轨卫星互联网星座项目,计划在2019年至2024年间在太空搭建由约1.2万颗卫星组成的“星链”网络,其中1584颗将部署在地球上空550千米处的近地轨道,并从2020年开始工作。该卫星仍在工作。
2D轨道图
3D轨道图
轨道高度分析图
轨道倾角分析图
轨道综合分析图
查看轨道综合分析图